Weather History for Goodland, KS

Change the Weather History Date:

Friday, February 1, 2013

  Actual Average Record
Temperature  
Mean Temperature 35 °F 30 °F  
Max Temperature 55 °F 43 °F 78 °F (2003)
Min Temperature 15 °F 17 °F -21 °F (1951)
Degree Days  
Heating Degree Days 30 35  
Month to date heating degree days 30 35  
Since 1 July heating degree days 3366 3538  
Cooling Degree Days 0 0  
Month to date cooling degree days 0 0  
Year to date cooling degree days 0 0  
Moisture  
Dew Point 20 °F    
Average Humidity 58    
Maximum Humidity 92    
Minimum Humidity 24    
Precipitation  
Precipitation 0.00 in 0.02 in 0.42 in (1982)
Month to date precipitation 0.00 0.02  
Year to date precipitation 0.07 0.40  
Snow  
Snow 0.00 in 0.20 in - ()
Month to date snowfall 0.0 0.2  
Since 1 July snowfall 10.7 18.8  
Snow Depth 0.00 in    
Sea Level Pressure  
Sea Level Pressure 30.17 in    
Wind  
Wind Speed 11 mph (WSW)    
Max Wind Speed 24 mph    
Max Gust Speed 31 mph    
Visibility 10 miles    
Events      
T = Trace of Precipitation, MM = Missing Value Source: NWS Daily Summary

Daily Weather History Graph

Daily Weather History Graph

Search for Another Location

Airport:

Trip Planner

Search our weather history database for the weather conditions in past years. The results will help you decide how hot, cold, wet, or windy it might be!

Date:

Astronomy

Feb. 01, 2013 Rise Set
Actual Time 6:53 AM MST 5:07 PM MST
Civil Twilight 6:25 AM MST 5:35 PM MST
Nautical Twilight 5:53 AM MST 6:08 PM MST
Astronomical Twilight 5:21 AM MST 6:39 PM MST
Moon 11:14 PM MST (2/1) 9:30 AM MST (2/1)
Length of Visible Light 11h 10m
Length of Day
10h 13m
Waning Gibbous, 69% of the Moon is Illuminated
Feb 1
Waning Gibbous
Feb 3
Last Quarter
Feb 10
New
Feb 17
First Quarter
Feb 25
Full

Hourly Weather History & Observations

Time (MST) Temp. Windchill Dew Point Humidity Pressure Visibility Wind Dir Wind Speed Gust Speed Precip Events Conditions
12:53 AM 18.0 °F 6.9 °F 15.1 °F 88% 30.27 in 10.0 mi South 9.2 mph - N/A   Clear
1:22 AM 19.4 °F 5.5 °F 15.8 °F 86% 30.17 in 7.0 mi SSW 15.0 mph 21.9 mph N/A   Scattered Clouds
1:30 AM 19.4 °F 5.0 °F 17.6 °F 93% 30.17 in 6.0 mi SSW 16.1 mph 21.9 mph N/A   Mostly Cloudy
1:44 AM 21.2 °F 6.4 °F 17.6 °F 86% 30.17 in 8.0 mi SSW 18.4 mph - N/A   Scattered Clouds
1:53 AM 21.0 °F 6.2 °F 18.0 °F 88% 30.24 in 9.0 mi SSW 18.4 mph - N/A   Partly Cloudy
2:53 AM 21.0 °F 5.7 °F 18.0 °F 88% 30.23 in 10.0 mi SSW 19.6 mph - N/A   Clear
3:53 AM 21.0 °F 5.7 °F 17.1 °F 85% 30.22 in 10.0 mi SSW 19.6 mph 29.9 mph N/A   Clear
4:53 AM 21.0 °F 6.6 °F 17.1 °F 85% 30.22 in 10.0 mi SSW 17.3 mph - N/A   Clear
5:53 AM 21.0 °F 7.6 °F 17.1 °F 85% 30.24 in 10.0 mi SSW 15.0 mph 25.3 mph N/A   Clear
6:53 AM 19.0 °F 10.0 °F 15.1 °F 85% 30.25 in 10.0 mi SSW 6.9 mph - N/A   Clear
7:53 AM 19.9 °F 10.1 °F 16.0 °F 85% 30.23 in 10.0 mi South 8.1 mph - N/A   Clear
8:53 AM 25.0 °F 13.6 °F 19.9 °F 81% 30.23 in 10.0 mi SW 12.7 mph - N/A   Partly Cloudy
9:53 AM 30.0 °F 22.4 °F 21.0 °F 69% 30.19 in 10.0 mi SW 8.1 mph - N/A   Clear
10:53 AM 39.2 °F 34.2 °F 24.8 °F 56% 30.07 in 10.0 mi WSW 6.9 mph - N/A   Clear
11:53 AM 44.6 °F 40.2 °F 23.0 °F 43% 30.04 in 10.0 mi SSW 8.1 mph - N/A   Mostly Cloudy
12:53 PM 48.9 °F - 19.9 °F 32% 30.06 in 10.0 mi SSW 9.2 mph - N/A   Clear
1:53 PM 52.0 °F - 19.0 °F 27% 30.03 in 10.0 mi WSW 8.1 mph - N/A   Clear
2:53 PM 54.0 °F - 17.1 °F 23% 30.01 in 10.0 mi West 9.2 mph - N/A   Clear
3:53 PM 52.0 °F - 17.1 °F 25% 30.03 in 10.0 mi WSW 4.6 mph - N/A   Overcast
4:53 PM 46.9 °F - 18.0 °F 32% 30.06 in 10.0 mi North 10.4 mph - N/A   Overcast
5:53 PM 44.1 °F 36.2 °F 26.1 °F 49% 30.13 in 10.0 mi NNW 18.4 mph - N/A   Overcast
6:53 PM 37.9 °F 32.1 °F 27.0 °F 65% 30.16 in 10.0 mi NW 8.1 mph - N/A   Scattered Clouds
7:53 PM 36.0 °F 28.5 °F 28.0 °F 73% 30.19 in 10.0 mi NW 10.4 mph - N/A   Clear
8:53 PM 33.1 °F 24.4 °F 28.0 °F 82% 30.20 in 10.0 mi WNW 11.5 mph - N/A   Clear
9:53 PM 30.0 °F 20.0 °F 26.1 °F 85% 30.23 in 10.0 mi West 12.7 mph - N/A   Clear
10:53 PM 28.0 °F 19.3 °F 25.0 °F 88% 30.23 in 10.0 mi WNW 9.2 mph - N/A   Clear
11:53 PM 28.0 °F 18.1 °F 24.1 °F 85% 30.23 in 10.0 mi West 11.5 mph - N/A   Clear